{"data":{"norad_id":39624,"epoch":"2026-09-20T02:25:55.744032Z","epoch_age_seconds":71683,"freshness":"FRESH","line1":"1 39624U 14014A   26263.10133963  .00000243  00000+0  57499-4 0  9995","line2":"2 39624  97.9447 286.2256 0014993  50.8017 309.4514 14.61923912664565","mean_motion":14.61923912,"eccentricity":0.0014993,"inclination_deg":97.9447,"raan_deg":286.2256,"arg_perigee_deg":50.8017,"mean_anomaly_deg":309.4514,"bstar":5.7499e-5,"rev_number":66456,"period_min":98.500338367815,"perigee_km":676.37595239695,"apogee_km":697.56137824499,"semimajor_km":7065.105665321,"source":"CELESTRAK","updated_at":"2026-09-20T09:00:13.967992Z"}}